Location: Keeble Observatory
(37.7625°N, 77.4755°W)
Time: 21:58:56
(UTC-04:00)

Daily predictions for brighter satellites

Satellite Brightness Start Highest point End
(mag) Time Altitude Azimuth Time Altitude Azimuth Time Altitude Azimuth
SL-16 R/B 2.3 18:49:59 10° NNW 18:55:35 57° ENE 19:01:09 10° SE
Tiangong 1 0.6 18:53:06 10° WNW 18:55:50 79° NNE 18:58:30 10° ESE
SKYMED 2 3.8 18:51:44 10° NNE 18:55:56 47° E 19:00:07 10° S
ERS-2 2.2 18:53:03 10° SSE 18:56:44 87° WSW 19:00:27 10° NNW
Meteor 1-28 Rocket 3.4 18:54:51 10° N 18:58:39 79° WNW 19:02:25 10° SSW
Cosmos 1743 Rocket 4.1 18:58:18 10° N 19:02:21 36° ENE 19:06:25 10° SE
Cosmos 1766 Rocket 3.7 19:00:49 10° N 19:05:17 84° W 19:09:45 10° S
Cosmos 2151 3.8 19:02:06 10° NNE 19:05:52 29° ENE 19:09:37 10° SE
Cosmos 1842 Rocket 3.9 19:03:30 10° SSE 19:07:43 43° E 19:11:58 10° NNE
Delta 2 Rocket 4.0 19:04:26 10° SW 19:07:48 33° SSE 19:10:44 11° E
SL-14 R/B 3.6 19:06:43 10° NNW 19:10:31 67° W 19:14:20 10° S
Meteor 2-21 Rocket 4.5 19:04:37 10° S 19:10:43 89° W 19:16:49 10° N
H-2A R/B 4.4 19:08:28 10° ESE 19:10:44 15° ENE 19:13:01 10° NNE
Cosmos 2366 rocket 4.0 19:06:26 10° S 19:12:38 73° E 19:18:48 10° N
SMAP 4.5 19:10:15 10° S 19:14:40 43° W 19:19:06 10° NNW
Cosmos 2221 3.5 19:16:11 10° SE 19:19:39 24° E 19:23:09 10° NE
METEOR-M 4.1 19:18:09 10° SSE 19:23:29 86° ENE 19:28:52 10° NNW
ISS -3.0 19:20:22 10° WNW 19:23:34 51° SW 19:26:45 10° SSE
FREGAT/IRIS 4.1 19:23:44 18° ENE 19:23:53 18° ENE 19:26:04 10° NNE
Cosmos 1500 Rocket 3.7 19:20:35 10° N 19:24:49 48° E 19:29:00 10° SSE
SPOT 3 Rocket 3.5 19:19:57 10° SSE 19:25:07 78° ENE 19:30:21 10° N
Cosmos 1315 Rocket 3.5 19:27:14 10° NNE 19:30:56 33° ENE 19:34:38 10° SE
Cosmos 921 Rocket 3.9 19:28:18 10° N 19:32:14 30° ENE 19:34:56 16° ESE
COSMOS 2428 3.9 19:28:08 10° N 19:32:25 21° NE 19:34:16 18° E
NOSS 3 (A) 4.2 19:32:07 10° SSW 19:34:50 77° ESE 19:36:59 17° NE
Cosmos 2333 Rocket 4.0 19:33:16 10° NNE 19:35:38 12° NE 19:36:01 12° NE
Cosmos 2056 Rocket 3.8 19:31:53 10° NNW 19:37:11 72° WSW 19:42:22 10° S
Cosmos 1833 4.1 19:31:50 10° SSW 19:37:32 80° ESE 19:43:13 10° NNE
DMSP B5D1-3 4.4 19:32:37 10° NNE 19:37:46 81° ESE 19:42:54 10° S
Cosmos 2098 Rocket 3.9 19:36:20 10° SE 19:39:47 28° E 19:44:01 10° NNE
Cosmos 2360 Rocket 2.3 19:34:24 10° NNW 19:39:57 53° ENE 19:45:27 10° SE
NOAA 12 4.0 19:34:51 10° SSE 19:40:07 81° ENE 19:45:28 10° N
Meteor 2-1 Rocket 4.2 19:34:56 10° S 19:40:39 79° E 19:46:32 10° NNE
Cosmos 2058 2.8 19:36:30 10° N 19:40:42 76° E 19:44:50 10° SSE
Cosmos 2219 4.0 19:37:58 10° SSE 19:42:45 28° ESE 19:45:35 19° ENE
COSMO-SKYMED 1 3.7 19:39:49 10° N 19:43:59 46° WNW 19:48:07 10° SW
RESURS DK-1 2.7 19:41:31 10° N 19:45:27 41° ENE 19:47:05 28° ESE
Cosmos 2322 Rocket 3.0 19:40:32 10° NNW 19:45:59 53° WSW 19:51:24 10° S
Cosmos 1626 2.7 19:43:44 10° NNW 19:47:26 60° W 19:51:06 10° S
SL-24 R/B - RUBIN 2 4.1 19:43:41 10° NNW 19:48:18 42° NE 19:49:57 30° E
Cosmos 1821 Rocket 4.2 19:44:34 10° SSE 19:50:21 45° E 19:56:13 10° NNE
BREEZE-M DEB (TANK) 2.3 19:50:15 10° W 19:52:10 34° NNW 19:52:36 30° N
SL-8 R/B 3.8 19:48:48 10° WSW 19:53:37 77° NNW 19:56:26 25° NE
SJ-6B 3.2 19:55:11 38° ENE 19:55:11 38° ENE 19:58:32 10° N
Cosmos 1452 Rocket 3.4 19:49:55 10° NNW 19:55:09 64° ENE 20:00:13 11° SSE
USA 267 3.2 19:49:38 14° NE 19:55:19 65° SE 20:01:48 10° SW
Cosmos 2239 Rocket 4.5 19:53:26 10° SSE 19:59:22 54° E 20:05:19 10° NNE
Cosmos 1934 Rocket 4.3 19:53:56 10° SSE 19:59:47 41° E 20:05:42 10° NNE
Centaur AC-112 4.2 19:55:17 10° WSW 19:59:57 18° SSW 20:01:27 15° SSE
Cosmos 1727 Rocket 4.5 19:55:16 10° NNW 20:01:34 65° W 20:07:48 10° S
Atlas Centaur 2 2.9 19:57:05 10° WSW 20:01:52 40° S 20:04:35 26° SE
Cosmos 1805 Rocket 4.0 19:58:46 10° N 20:02:32 39° ENE 20:02:32 39° ENE
DELTA 2 R/B (1) 3.6 19:58:04 10° W 20:03:41 76° N 20:05:56 37° E
Cosmos 2322 3.6 19:59:40 10° NNW 20:05:24 70° ENE 20:09:19 21° SSE
ALOS 3.0 20:04:09 10° S 20:08:42 53° W 20:13:16 10° NNW
BREEZE M DEB (TANK) 4.1 20:08:10 10° NW 20:10:26 15° N 20:10:26 15° N
CZ-4C R/B 2.3 20:07:01 10° S 20:11:49 45° ESE 20:12:17 44° E
FENGYUN 3A 4.3 20:08:02 10° S 20:13:18 56° W 20:18:38 10° NNW
Cosmos 2123 Rocket 4.2 20:14:16 10° N 20:20:14 46° ENE 20:20:47 45° E
USA 234 4.3 20:28:01 26° NE 20:29:10 28° NNE 20:34:32 10° NNW
Tiangong 1 3.9 20:29:05 10° WSW 20:29:46 12° SW 20:29:46 12° SW
Cosmos 2219 Rocket 3.1 20:25:24 10° N 20:29:16 33° NNE 20:29:16 33° NNE
ASTRO E2 4.1 20:27:44 10° WSW 20:30:31 29° SSW 20:30:31 29° SSW
Cosmos 1048 Rocket 4.0 20:29:30 10° SSW 20:34:38 76° WNW 20:38:42 16° NNE
Cosmos 2333 4.1 20:35:10 10° NNW 20:40:47 71° ENE 20:40:47 71° ENE
Cosmos 2237 4.3 20:35:19 10° NNW 20:41:02 73° WSW 20:42:59 42° S
Cosmos 1420 Rocket 4.3 20:37:15 10° NNW 20:42:32 64° WSW 20:44:27 38° S
Envisat 4.2 20:46:16 32° N 20:46:16 32° N 20:49:01 10° N
H-2A R/B 4.3 20:43:01 23° SW 20:44:40 34° W 20:48:14 10° NNW
Resurs 01 Rocket 3.6 20:49:59 20° N 20:49:59 20° N 20:51:26 10° N
Cosmos 44 4.0 20:44:49 10° SW 20:47:53 42° WSW 20:47:53 42° WSW
Cosmos 2237 Rocket 3.9 20:53:33 10° N 20:55:40 21° N 20:55:40 21° N
Cosmos 44 Rocket 4.2 20:55:10 10° SW 20:58:42 44° WSW 20:58:42 44° WSW
COSMOS 2428 3.4 21:11:29 10° NNW 21:16:20 50° W 21:16:20 50° W
Cosmos 2333 Rocket 3.5 21:15:01 10° NNW 21:18:02 32° NNW 21:18:02 32° NNW
Cosmos 2219 4.5 21:21:22 10° SW 21:26:41 38° WNW 21:27:40 36° NW
USA 267 4.3 21:37:01 36° NNW 21:38:03 38° NNW 21:43:57 10° W
Atlas Centaur 2 4.4 21:45:26 10° WSW 21:47:13 19° WSW 21:47:13 19° WSW
